Weather in Livani

Latvia     56°21′27″N   26°10′39″E
temp.,
°C
wind,
m/s
gust,
m/s
humid.,
%
clouds,
%
prec.,
mm/h
press.,
hPa
HPBL,
m
20 january, thu
thu2023:00+1sw51584100 0.0 1004498
02:00+1ssw51681100 0.0 1000627
05:00+1ssw61581100 0.0 995849
08:000ssw61496100 0.5 991940
11:00+1sw61487100 1.3 9891226
14:000wsw6147577 1.6 9881556
17:00−2sw71479100 0.0 9881152
20:00−2sw81592100 0.7 9851222
21 january, fri
fri2123:00−2wsw51293100 1.6 985781
02:00−1w51096100 2.6 9851030
05:00−2nw61287100 0.7 9871074
08:00−3nw51289100 0.9 9901161
11:00−2nnw61182100 0.1 9931081
14:00−2nnw61281100 0.4 9951265
17:00−3nw61291100 0.4 9981124
20:00−4nw51085100 0.6 10001007
22 january, sat
sat2223:00−4nnw51090100 0.3 1002821
02:00−4n51185100 0.5 1005841
05:00−5n41188100 0.1 1007629
08:00−5nnw51291100 0.1 1009779
11:00−3n51185100 0.3 10121052
14:00−3n588389 0.6 1014892
17:00−5n388982 0.1 1017409
20:00−6n3991100 0.1 1019561
23 january, sun
sun2323:00−6nnw3990100 0.1 1021715
02:00−6nnw3991100 0.1 1022613
05:00−7nnw389395 0.1 1023436
08:00−6nne279483 0.2 1025514
11:00−6ne248589 0.1 1028447
14:00−6ene238160 0.1 1029388
17:00−10ene149728 0.0 103161
20:00−11ene119865 0.0 103215
24 january, mon
mon2423:00−12se139736 0.0 103366
02:00−12s149753 0.0 103377
05:00−12s259755 0.0 103299
08:00−12s279632 0.0 1031158
11:00−8s410855 0.0 1030313
14:00−6s4117967 0.0 1027527
17:00−7s41284100 0.0 1025455
20:00−6s41384100 0.0 1022511